Regional Weather Roundup
Issued by NWS

Home | Current Version | Previous Version | Text Only | Print | Product List | Glossary On
Versions: 1 2 3 4 5 6 7 8 9 10 11 12 13 14 15 16 17 18 19 20 21 22 23 24 25 26 27 28 29 30 31 32 33 34 35 36 37 38 39 40 41 42 43 44 45 46 47 48 49 50
000
ASUS43 KMKX 031711
RWRWI

WISCONSIN REGIONAL WEATHER ROUNDUP
NATIONAL WEATHER SERVICE MILWAUKEE/SULLIVAN WI
1200 PM CDT FRI JUL 03 2015

NOTE: "FAIR" INDICATES FEW OR NO CLOUDS BELOW 12,000 FEET WITH NO
SIGNIFICANT WEATHER AND/OR OBSTRUCTIONS TO VISIBILITY.

WIZ001-002-006>008-014>016-023>028-031800-
NORTHWEST WISCONSIN

CITY           SKY/WX    TMP DP  RH WIND       PRES   REMARKS
SUPERIOR ARPT  SUNNY     74  64  69 SW7       29.87F
ASHLAND        SUNNY     72  60  66 SW9       29.88F
HAYWARD        CLOUDY    71  54  54 SW8       29.93S
SIREN          MOSUNNY   74  56  53 W8        29.93S
CUMBERLAND     MOSUNNY   70  54  56 SW12      29.95F
RICE LAKE      MOSUNNY   73  54  52 SW7       29.96F
CHETEK         MOSUNNY   73  56  56 SW8       29.95F
LADYSMITH      MOSUNNY   73  55  52 SW9       29.97S
EAU CLAIRE     MOSUNNY   75  56  51 W9        29.96S
MENOMONIE      MOSUNNY   75  55  50 W10       29.96F
NEW RICHMOND   MOSUNNY   73  55  54 W8        29.96F
OSCEOLA        PTSUNNY   74  58  57 SW7       29.97F
$$

WIZ003>005-009-010-017-018-031800-
NORTH CENTRAL WISCONSIN

CITY           SKY/WX    TMP DP  RH WIND       PRES   REMARKS
MANITOWISH WTR PTSUNNY   68  56  67 SW9       29.93S
ARBOR VITAE    PTSUNNY   72  58  62 W7        29.93F
WOODRUFF       PTSUNNY   72  58  62 W7        29.93F
RHINELANDER    MOSUNNY   72  55  55 SW13      29.95F
EAGLE RIVER    MOSUNNY   70  54  56 SW13      29.93S
LAND O LAKES   MOSUNNY   68  54  59 W6        29.93F
PHILLIPS       MOSUNNY   71  55  56 SW10      29.94F
TOMAHAWK       SUNNY     71  56  58 SW8       29.96F
MEDFORD        MOSUNNY   71  57  60 W7        29.97F
MERRILL        SUNNY     73  58  59 SW9       29.97S
$$

WIZ029-030-035-036-043>047-031800-
CENTRAL WISCONSIN

CITY           SKY/WX    TMP DP  RH WIND       PRES   REMARKS
WAUSAU         SUNNY     73  55  53 SW9       29.96S
MOSINEE        MOSUNNY   70  57  64 SW5       29.99S
MARSHFIELD     SUNNY     72  56  57 W7        29.98S
STEVENS POINT  SUNNY     69  52  54 W5        29.98F
WAUPACA        SUNNY     74  52  44 SW3       29.98S
WAUTOMA        SUNNY     74  53  47 SW6       29.98F
WISC RAPIDS    SUNNY     72  52  49 SW5       29.99F
CAMP DOUGLAS   MOSUNNY   73  60  64 W6        29.97F
$$

WIZ011>013-019>022-031-037>040-048>050-031800-
NORTHEAST WISCONSIN

CITY           SKY/WX    TMP DP  RH WIND       PRES   REMARKS
ANTIGO         SUNNY     70  58  66 W9        29.97F
SHAWANO        SUNNY     73  51  45 W6        29.97F
OCONTO         SUNNY     71  56  58 W8        29.95F
STURGEON BAY   SUNNY     70  54  56 W14       29.98F
GREEN BAY      SUNNY     72  56  57 SW8       29.97F
MANITOWOC      SUNNY     70  57  63 MISG      29.97F
APPLETON       SUNNY     70  54  56 SW6       29.99S
CLINTONVILLE   SUNNY     72  50  46 SW5       29.97F
OSHKOSH        SUNNY     72  54  53 SW9       29.98F
$$

WIZ032>034-041-042-053>061-031800-
SOUTHWEST WISCONSIN

CITY           SKY/WX    TMP DP  RH WIND       PRES   REMARKS
LA CROSSE      SUNNY     74  59  59 SW6       29.97F
SPARTA         SUNNY     73  53  49 SW5       29.98F
VIROQUA        SUNNY     71  54  55 NW5       30.00F
BOSCOBEL       SUNNY     73  54  51 VRB3      29.99F
PRAIRIE DU CHI SUNNY     71  51  49 CALM      29.99F
PLATTEVILLE    SUNNY     70  48  46 CALM      30.00F
$$

WIZ056-057-062-063-064-067-068-031800-
SOUTH CENTRAL WISCONSIN

CITY           SKY/WX    TMP DP  RH WIND       PRES   REMARKS
REEDSBURG      SUNNY     70  53  55 CALM      29.98F
BARABOO/DELLS  SUNNY     71  49  46 N5        29.99F
LONE ROCK      SUNNY     71  55  56 CALM      30.00F
MINERAL POINT  SUNNY     72  50  46 N5        30.00F
MADISON        MOSUNNY   71  54  54 SW5       29.99F
MIDDLETON      SUNNY     72  51  46 CALM      30.00F
WATERTOWN      SUNNY     70  56  60 CALM      29.98F
MONROE         PTSUNNY   70  55  60 CALM      29.99F
JANESVILLE     MOSUNNY   73  55  53 NW3       29.98S
$$

WIZ051-052-058>065-066-070>072-031800-
SOUTHEAST WISCONSIN

CITY           SKY/WX    TMP DP  RH WIND       PRES   REMARKS
MILWAUKEE      PTSUNNY   71  54  54 E7        29.99F
WAUKESHA       MOSUNNY   70  52  52 CALM      30.00S
MILWAUKEE/TIMM PTSUNNY   73  46  38 CALM      29.99F
RACINE         MOSUNNY   71  53  52 CALM      30.00F
BURLINGTON     MOSUNNY   71  53  51 E5        29.98F
KENOSHA        MOSUNNY   72  54  53 CALM      29.99S
FOND DU LAC    SUNNY     72  54  53 VRB5      29.98F
SHEBOYGAN      MOSUNNY   73  55  53 S6        29.98F
WEST BEND      PTSUNNY   72  52  49 CALM      29.98F
JUNEAU         SUNNY     69  55  60 W5        30.00F
$$

LSZ147-162-031800-
LAKE SUPERIOR

STATION/POSITION TIME  TEMP    WIND        PRES    WAVE
                       AIR SEA DIR/SP/G            HT/PER
                 (UTC) (F)     (DEG/KT/KT) (MB)    (FT/S)
W MID LAKE BUOY  1650   47 39  220/ 10/ 12 1010.4F   2/ 4
DEVILS ISLAND    1700   63     230/ 16/ 19 1010.8F
SAXON HARBOR     1600   71     210/  4/ 10 1011.9S
$$

LMZ867-665-643>646-031800-
LAKE MICHIGAN

STATION/POSITION TIME  TEMP    WIND        PRES    WAVE
                       AIR SEA DIR/SP/G            HT/PER
                 (UTC) (F)     (DEG/KT/KT) (MB)    (FT/S)
CHAMBERS ISLAND  1600   67     190/  6/ 14 1014.6F
S GREEN BAY BUOY 1500   65 68  220/ 14/ 16 1016.4F
N MID LAKE BUOY  1650   49 44  200/ 12/ 14 1014.4F   1/ 3
NORTHPORT PIER   1600   68     240/  6/ 11 1014.2F
SISTER BAY       1644   71     280/ 11/ 12   N/A
ALGOMA LAKESHORE 1510          190/ 10/ 11   N/A
KEWAUNEE LAKESHO 1600   62     180/  9/ 12 1014.4F
SHEBOYGAN LAKESH 1700   59     140/ 12/ 12 1015.4F
PORT WASHINGTON  1600   63     120/  2/  3 1016.6S
ATWATER BUOY     1700   60 60  120/  4/  6 1017.0F
MILWAUKEE LAKESH 1600   61      70/  4/  5   N/A
KENOSHA   LAKESH 1700   60      60/  4/  5 1015.2F
$$

TC  - TEMPERATURE IN CELSIUS
VSB - VISIBILITY IN STATUTE MILES
WCI - WIND CHILL INDEX
HX  - HEAT INDEX




USA.gov is the U.S. government's official web portal to all federal, state and local government web resources and services.